When you browse on this site, cookies collect data to enhance your experience and personalize the content and advertising you see.
Visit our Privacy Policy to learn more. By continuing to use the site, you agree to this use of cookies and data.
  • In Italy
  • List of Countries
  • For 7 days
  • Water Temperature
  • Satellite Maps
  • Weather Map
  • Weather Widgets
  • user-avatar
    Login

    Hourly Weather Lewis

    Today, 20 January, Sunday

    Time Temperature Precipitation Wind Pressure Humidity
    00:00 +4°C° 0 mm 4 mps 748 mmHg 87%
    01:00 +3°C° 0.1 mm 5 mps 748 mmHg 87%
    02:00 +3°C° 0.1 mm 5 mps 748 mmHg 87%
    03:00 +3°C° 0.1 mm 6 mps 748 mmHg 87%
    04:00 +2°C° 1.2 mm 8 mps 749 mmHg 82%
    05:00 +3°C° 1.2 mm 9 mps 749 mmHg 78%
    06:00 +3°C° 1.2 mm 10 mps 750 mmHg 73%
    07:00 +2°C° 0 mm 10 mps 751 mmHg 71%
    08:00 +2°C° 0 mm 9 mps 751 mmHg 69%
    09:00 +2°C° 0 mm 9 mps 752 mmHg 66%
    10:00 +2°C° 0.1 mm 9 mps 753 mmHg 66%
    11:00 +2°C° 0.1 mm 9 mps 754 mmHg 65%
    12:00 +2°C° 0.1 mm 8 mps 755 mmHg 65%
    13:00 +2°C° 0.1 mm 8 mps 755 mmHg 64%
    14:00 +2°C° 0.1 mm 8 mps 755 mmHg 63%
    15:00 +2°C° 0.1 mm 8 mps 755 mmHg 62%
    16:00 +2°C° 0 mm 7 mps 756 mmHg 63%
    17:00 +2°C° 0 mm 6 mps 756 mmHg 64%
    18:00 +2°C° 0 mm 6 mps 756 mmHg 66%
    19:00 +2°C° 0.1 mm 5 mps 756 mmHg 66%
    20:00 +2°C° 0.1 mm 5 mps 756 mmHg 67%
    21:00 +2°C° 0.1 mm 5 mps 757 mmHg 68%
    22:00 +2°C° 0 mm 5 mps 756 mmHg 69%
    23:00 +2°C° 0 mm 6 mps 756 mmHg 70%

    Tomorrow, 21 January, Monday

    Time Temperature Precipitation Wind Pressure Humidity
    00:00 +2°C° 0 mm 6 mps 756 mmHg 71%
    01:00 +3°C° 0 mm 7 mps 755 mmHg 72%
    02:00 +2°C° 0 mm 8 mps 754 mmHg 73%
    03:00 +2°C° 0 mm 8 mps 754 mmHg 73%
    04:00 +2°C° 0.2 mm 9 mps 753 mmHg 74%
    05:00 +2°C° 0.2 mm 10 mps 752 mmHg 75%
    06:00 +3°C° 0.2 mm 12 mps 751 mmHg 76%
    07:00 +3°C° 0.1 mm 12 mps 750 mmHg 75%
    08:00 +3°C° 0.1 mm 13 mps 748 mmHg 74%
    09:00 +3°C° 0.1 mm 14 mps 747 mmHg 73%
    10:00 +2°C° 0.5 mm 15 mps 745 mmHg 74%
    11:00 +2°C° 0.5 mm 15 mps 744 mmHg 76%
    12:00 +2°C° 0.5 mm 16 mps 742 mmHg 77%
    13:00 +2°C° 1.4 mm 15 mps 741 mmHg 80%
    14:00 +3°C° 1.4 mm 14 mps 740 mmHg 83%
    15:00 +1°C° 1.4 mm 13 mps 738 mmHg 85%
    16:00 +2°C° 0.9 mm 11 mps 738 mmHg 78%
    17:00 +1°C° 0.9 mm 9 mps 738 mmHg 72%
    18:00 +1°C° 0.9 mm 8 mps 737 mmHg 65%
    19:00 +1°C° 0.5 mm 8 mps 737 mmHg 65%
    20:00 +2°C° 0.5 mm 7 mps 737 mmHg 65%
    21:00 +2°C° 0.5 mm 7 mps 737 mmHg 66%
    22:00 +2°C° 0.2 mm 7 mps 737 mmHg 66%
    23:00 +1°C° 0.2 mm 6 mps 736 mmHg 67%

    Day after tomorrow, 22 January, Tuesday

    Time Temperature Precipitation Wind Pressure Humidity
    00:00 +1°C° 0.2 mm 5 mps 736 mmHg 67%
    01:00 +1°C° 0.6 mm 5 mps 736 mmHg 69%
    02:00 +1°C° 0.6 mm 5 mps 736 mmHg 71%
    03:00 +1°C° 0.6 mm 5 mps 736 mmHg 73%
    04:00 -1°C° 0.6 mm 6 mps 736 mmHg 73%
    05:00 -1°C° 0.6 mm 7 mps 736 mmHg 74%
    06:00 -1°C° 0.6 mm 8 mps 736 mmHg 74%
    07:00 -1°C° 0.1 mm 8 mps 737 mmHg 72%
    08:00 -1°C° 0.1 mm 8 mps 737 mmHg 69%
    09:00 -1°C° 0.1 mm 8 mps 737 mmHg 67%
    10:00 -1°C° 0 mm 8 mps 737 mmHg 67%
    11:00 -1°C° 0 mm 8 mps 738 mmHg 66%
    12:00 0°C° 0 mm 8 mps 738 mmHg 66%
    13:00 0°C° 0 mm 8 mps 738 mmHg 65%
    14:00 -1°C° 0 mm 8 mps 738 mmHg 64%
    15:00 -1°C° 0 mm 8 mps 738 mmHg 63%
    16:00 -1°C° 0.1 mm 8 mps 738 mmHg 63%
    17:00 -1°C° 0.1 mm 7 mps 738 mmHg 64%
    18:00 -1°C° 0.1 mm 7 mps 738 mmHg 64%
    19:00 -1°C° 0 mm 7 mps 738 mmHg 64%
    20:00 -1°C° 0 mm 8 mps 739 mmHg 63%
    21:00 -1°C° 0 mm 8 mps 739 mmHg 62%
    22:00 -1°C° 0 mm 9 mps 739 mmHg 62%
    23:00 -1°C° 0 mm 9 mps 739 mmHg 63%

    23 January, Wednesday

    Time Temperature Precipitation Wind Pressure Humidity
    00:00 -1°C° 0 mm 9 mps 739 mmHg 63%
    01:00 0°C° 0 mm 9 mps 739 mmHg 63%
    02:00 0°C° 0 mm 10 mps 740 mmHg 64%
    03:00 0°C° 0 mm 10 mps 740 mmHg 65%
    04:00 0°C° 0 mm 10 mps 740 mmHg 66%
    05:00 0°C° 0 mm 10 mps 741 mmHg 66%
    06:00 0°C° 0 mm 10 mps 741 mmHg 67%
    07:00 +1°C° 0 mm 10 mps 742 mmHg 67%
    08:00 +1°C° 0 mm 10 mps 742 mmHg 68%
    09:00 +1°C° 0 mm 9 mps 743 mmHg 68%
    10:00 +1°C° 0 mm 9 mps 743 mmHg 68%
    11:00 +1°C° 0 mm 9 mps 743 mmHg 68%
    12:00 +1°C° 0 mm 9 mps 744 mmHg 68%
    13:00 +1°C° 0 mm 9 mps 744 mmHg 68%
    14:00 +1°C° 0 mm 8 mps 745 mmHg 68%
    15:00 +1°C° 0 mm 8 mps 745 mmHg 69%
    16:00 +1°C° 0 mm 8 mps 746 mmHg 70%
    17:00 +1°C° 0 mm 8 mps 746 mmHg 71%
    18:00 +2°C° 0 mm 7 mps 747 mmHg 73%
    19:00 +2°C° 0 mm 7 mps 747 mmHg 74%
    20:00 +2°C° 0 mm 6 mps 748 mmHg 76%
    21:00 +2°C° 0 mm 5 mps 748 mmHg 77%
    22:00 +3°C° 0 mm 4 mps 748 mmHg 78%
    23:00 +3°C° 0 mm 3 mps 748 mmHg 78%

    24 January, Thursday

    Time Temperature Precipitation Wind Pressure Humidity
    00:00 +4°C° 0 mm 2 mps 749 mmHg 79%
    01:00 +4°C° 0 mm 2 mps 749 mmHg 79%
    02:00 +4°C° 0 mm 2 mps 749 mmHg 80%
    03:00 +5°C° 0 mm 1 mps 749 mmHg 80%
    04:00 +4°C° 0 mm 2 mps 749 mmHg 80%
    05:00 +4°C° 0 mm 2 mps 749 mmHg 79%
    06:00 +3°C° 0 mm 3 mps 749 mmHg 78%
    07:00 +3°C° 0.3 mm 4 mps 749 mmHg 79%
    08:00 +2°C° 0.3 mm 5 mps 748 mmHg 79%
    09:00 +2°C° 0.3 mm 6 mps 748 mmHg 80%
    10:00 +3°C° 0.8 mm 7 mps 748 mmHg 82%
    11:00 +2°C° 0.8 mm 8 mps 748 mmHg 84%
    12:00 +2°C° 0.8 mm 9 mps 748 mmHg 86%
    13:00 +2°C° 0.9 mm 9 mps 748 mmHg 88%
    14:00 +3°C° 0.9 mm 9 mps 748 mmHg 90%
    15:00 +3°C° 0.9 mm 9 mps 747 mmHg 92%
    16:00 +5°C° 0.4 mm 9 mps 748 mmHg 93%
    17:00 +6°C° 0.4 mm 8 mps 748 mmHg 95%
    18:00 +8°C° 0.4 mm 7 mps 748 mmHg 96%
    19:00 +8°C° 0 mm 7 mps 749 mmHg 95%
    20:00 +8°C° 0 mm 7 mps 749 mmHg 95%
    21:00 +8°C° 0 mm 7 mps 749 mmHg 95%
    22:00 +8°C° 0 mm 7 mps 749 mmHg 95%
    23:00 +8°C° 0 mm 7 mps 749 mmHg 95%

    25 January, Friday

    Time Temperature Precipitation Wind Pressure Humidity
    00:00 +6°C° 0 mm 7 mps 749 mmHg 94%
    01:00 +8°C° 0 mm 7 mps 749 mmHg 94%
    02:00 +7°C° 0 mm 8 mps 749 mmHg 94%
    03:00 +7°C° 0 mm 8 mps 749 mmHg 93%
    04:00 +7°C° 0.1 mm 8 mps 749 mmHg 91%
    05:00 +7°C° 0.1 mm 8 mps 749 mmHg 88%
    06:00 +7°C° 0.1 mm 9 mps 749 mmHg 85%
    07:00 +7°C° 0 mm 9 mps 748 mmHg 85%
    08:00 +7°C° 0 mm 10 mps 748 mmHg 84%
    09:00 +7°C° 0 mm 10 mps 748 mmHg 84%
    10:00 +7°C° 0.4 mm 10 mps 748 mmHg 86%
    11:00 +7°C° 0.4 mm 10 mps 748 mmHg 89%
    12:00 +7°C° 0.4 mm 10 mps 748 mmHg 91%
    13:00 +6°C° 0.2 mm 9 mps 748 mmHg 85%
    14:00 +6°C° 0.2 mm 8 mps 748 mmHg 79%
    15:00 +5°C° 0.2 mm 8 mps 748 mmHg 72%
    16:00 +5°C° 0 mm 8 mps 748 mmHg 72%
    17:00 +5°C° 0 mm 7 mps 748 mmHg 72%
    18:00 +5°C° 0 mm 7 mps 748 mmHg 72%
    19:00 +4°C° 0.1 mm 7 mps 748 mmHg 72%
    20:00 +4°C° 0.1 mm 7 mps 748 mmHg 72%
    21:00 +4°C° 0.1 mm 7 mps 748 mmHg 72%
    22:00 +4°C° 0 mm 7 mps 747 mmHg 71%
    23:00 +4°C° 0 mm 7 mps 747 mmHg 70%
    Show more